• In Hungary
  • List of Countries
  • For 7 days
  • Water Temperature
  • Satellite Maps
  • Weather Map
  • News
  • Weather Widgets
  • user-avatar
    Login

    Hourly Weather Linz

    Today, 20 November, Monday

    Time Temperature Precipitation Wind Pressure Humidity
    00:00 +1°C° 0.4 mm 6 mps 734 mmHg 89%
    01:00 +1°C° 0 mm 6 mps 734 mmHg 86%
    02:00 +1°C° 0.2 mm 6 mps 734 mmHg 86%
    03:00 +1°C° 0.2 mm 6 mps 734 mmHg 86%
    04:00 +1°C° 0.2 mm 6 mps 735 mmHg 86%
    05:00 +1°C° 0.2 mm 6 mps 735 mmHg 86%
    06:00 +1°C° 0.2 mm 6 mps 735 mmHg 86%
    07:00 +1°C° 0 mm 5 mps 735 mmHg 86%
    08:00 +1°C° 0.1 mm 5 mps 736 mmHg 85%
    09:00 +1°C° 0.1 mm 5 mps 736 mmHg 85%
    10:00 +2°C° 0.1 mm 5 mps 736 mmHg 84%
    11:00 +2°C° 0.1 mm 5 mps 736 mmHg 82%
    12:00 +2°C° 0.1 mm 5 mps 736 mmHg 79%
    13:00 +3°C° 0.1 mm 5 mps 735 mmHg 77%
    14:00 +3°C° 0.1 mm 4 mps 735 mmHg 79%
    15:00 +3°C° 0.1 mm 4 mps 735 mmHg 81%
    16:00 +2°C° 0.1 mm 3 mps 735 mmHg 84%
    17:00 +2°C° 0.4 mm 3 mps 735 mmHg 85%
    18:00 +2°C° 0.4 mm 3 mps 735 mmHg 87%
    19:00 +2°C° 0.4 mm 3 mps 735 mmHg 89%
    20:00 +2°C° 0.4 mm 3 mps 735 mmHg 89%
    21:00 +2°C° 0.4 mm 3 mps 734 mmHg 89%
    22:00 +2°C° 0.4 mm 3 mps 734 mmHg 90%
    23:00 +2°C° 0.8 mm 3 mps 734 mmHg 90%

    Tomorrow, 21 November, Tuesday

    Time Temperature Precipitation Wind Pressure Humidity
    00:00 +2°C° 0.8 mm 3 mps 733 mmHg 91%
    01:00 +2°C° 0.8 mm 3 mps 733 mmHg 92%
    02:00 +3°C° 0.8 mm 3 mps 733 mmHg 93%
    03:00 +3°C° 0.8 mm 3 mps 732 mmHg 93%
    04:00 +4°C° 0.8 mm 4 mps 732 mmHg 94%
    05:00 +4°C° 0.4 mm 4 mps 732 mmHg 94%
    06:00 +4°C° 0.4 mm 4 mps 732 mmHg 93%
    07:00 +5°C° 0.4 mm 4 mps 732 mmHg 93%
    08:00 +5°C° 0.2 mm 4 mps 732 mmHg 93%
    09:00 +5°C° 0.2 mm 4 mps 732 mmHg 92%
    10:00 +5°C° 0.2 mm 4 mps 732 mmHg 92%
    11:00 +6°C° 0.2 mm 4 mps 732 mmHg 92%
    12:00 +6°C° 0.2 mm 4 mps 732 mmHg 92%
    13:00 +6°C° 0.2 mm 4 mps 732 mmHg 92%
    14:00 +6°C° 0.1 mm 4 mps 732 mmHg 92%
    15:00 +6°C° 0.1 mm 4 mps 732 mmHg 92%
    16:00 +7°C° 0.1 mm 3 mps 733 mmHg 93%
    17:00 +7°C° 0.3 mm 3 mps 733 mmHg 93%
    18:00 +7°C° 0.3 mm 3 mps 733 mmHg 93%
    19:00 +7°C° 0.3 mm 3 mps 733 mmHg 93%
    20:00 +7°C° 0.1 mm 3 mps 733 mmHg 93%
    21:00 +7°C° 0.1 mm 3 mps 733 mmHg 92%
    22:00 +7°C° 0.1 mm 2 mps 733 mmHg 92%
    23:00 +6°C° 0 mm 2 mps 733 mmHg 91%

    Day after tomorrow, 22 November, Wednesday

    Time Temperature Precipitation Wind Pressure Humidity
    00:00 +5°C° 0 mm 2 mps 733 mmHg 90%
    01:00 +5°C° 0 mm 2 mps 733 mmHg 89%
    02:00 +5°C° 0 mm 2 mps 733 mmHg 88%
    03:00 +5°C° 0 mm 2 mps 733 mmHg 87%
    04:00 +4°C° 0 mm 2 mps 733 mmHg 86%
    05:00 +4°C° 0 mm 2 mps 733 mmHg 86%
    06:00 +5°C° 0 mm 1 mps 733 mmHg 85%
    07:00 +5°C° 0 mm 1 mps 733 mmHg 84%
    08:00 +6°C° 0 mm 1 mps 733 mmHg 83%
    09:00 +8°C° 0 mm 1 mps 733 mmHg 81%
    10:00 +9°C° 0 mm 1 mps 733 mmHg 80%
    11:00 +10°C° 0 mm 1 mps 733 mmHg 78%
    12:00 +11°C° 0 mm 1 mps 732 mmHg 76%
    13:00 +12°C° 0 mm 1 mps 732 mmHg 75%
    14:00 +11°C° 0 mm 1 mps 732 mmHg 78%
    15:00 +10°C° 0 mm 1 mps 732 mmHg 81%
    16:00 +9°C° 0 mm 1 mps 732 mmHg 84%
    17:00 +8°C° 0 mm 1 mps 732 mmHg 84%
    18:00 +7°C° 0 mm 1 mps 732 mmHg 83%
    19:00 +7°C° 0 mm 1 mps 732 mmHg 82%
    20:00 +7°C° 0 mm 1 mps 732 mmHg 82%
    21:00 +6°C° 0 mm 1 mps 732 mmHg 81%
    22:00 +6°C° 0 mm 1 mps 733 mmHg 81%
    23:00 +6°C° 0 mm 1 mps 732 mmHg 80%

    23 November, Thursday

    Time Temperature Precipitation Wind Pressure Humidity
    00:00 +6°C° 0 mm 1 mps 732 mmHg 79%
    01:00 +6°C° 0 mm 1 mps 732 mmHg 78%
    02:00 +6°C° 0 mm 1 mps 732 mmHg 77%
    03:00 +6°C° 0 mm 1 mps 732 mmHg 76%
    04:00 +5°C° 0 mm 1 mps 732 mmHg 75%
    05:00 +5°C° 0 mm 1 mps 733 mmHg 75%
    06:00 +5°C° 0 mm 1 mps 733 mmHg 75%
    07:00 +5°C° 0 mm 1 mps 733 mmHg 75%
    08:00 +6°C° 0 mm 1 mps 734 mmHg 74%
    09:00 +8°C° 0 mm 1 mps 734 mmHg 73%
    10:00 +9°C° 0 mm 1 mps 734 mmHg 73%
    11:00 +10°C° 0 mm 1 mps 734 mmHg 72%
    12:00 +11°C° 0 mm 1 mps 734 mmHg 71%
    13:00 +12°C° 0 mm 1 mps 734 mmHg 70%
    14:00 +11°C° 0 mm 1 mps 735 mmHg 72%
    15:00 +10°C° 0 mm 1 mps 735 mmHg 73%
    16:00 +9°C° 0 mm 1 mps 735 mmHg 75%
    17:00 +9°C° 0 mm 1 mps 736 mmHg 75%
    18:00 +9°C° 0 mm 1 mps 736 mmHg 75%
    19:00 +8°C° 0 mm 1 mps 737 mmHg 76%
    20:00 +8°C° 0 mm 1 mps 737 mmHg 77%
    21:00 +8°C° 0 mm 1 mps 737 mmHg 78%
    22:00 +8°C° 0 mm 1 mps 738 mmHg 79%
    23:00 +8°C° 0 mm 1 mps 738 mmHg 79%

    24 November, Friday

    Time Temperature Precipitation Wind Pressure Humidity
    00:00 +8°C° 0 mm 1 mps 738 mmHg 80%
    01:00 +7°C° 0 mm 1 mps 738 mmHg 81%
    02:00 +7°C° 0 mm 1 mps 738 mmHg 81%
    03:00 +7°C° 0 mm 1 mps 738 mmHg 81%
    04:00 +7°C° 0 mm 1 mps 738 mmHg 82%
    05:00 +7°C° 0 mm 1 mps 738 mmHg 81%
    06:00 +7°C° 0 mm 1 mps 738 mmHg 81%
    07:00 +7°C° 0 mm 1 mps 738 mmHg 81%
    08:00 +8°C° 0 mm 1 mps 738 mmHg 78%
    09:00 +9°C° 0 mm 1 mps 738 mmHg 76%
    10:00 +11°C° 0 mm 1 mps 737 mmHg 74%
    11:00 +12°C° 0 mm 1 mps 737 mmHg 72%
    12:00 +13°C° 0 mm 1 mps 737 mmHg 71%
    13:00 +13°C° 0 mm 0 mps 736 mmHg 70%
    14:00 +13°C° 0 mm 1 mps 736 mmHg 74%
    15:00 +11°C° 0 mm 1 mps 736 mmHg 77%
    16:00 +10°C° 0 mm 1 mps 736 mmHg 81%
    17:00 +9°C° 0 mm 1 mps 736 mmHg 80%
    18:00 +9°C° 0 mm 1 mps 736 mmHg 79%
    19:00 +8°C° 0 mm 1 mps 737 mmHg 78%
    20:00 +8°C° 0 mm 1 mps 737 mmHg 76%
    21:00 +8°C° 0 mm 1 mps 737 mmHg 75%
    22:00 +8°C° 0 mm 1 mps 737 mmHg 74%
    23:00 +8°C° 0 mm 1 mps 737 mmHg 73%

    25 November, Saturday

    Time Temperature Precipitation Wind Pressure Humidity
    00:00 +7°C° 0 mm 1 mps 737 mmHg 72%
    01:00 +7°C° 0 mm 1 mps 736 mmHg 72%
    02:00 +7°C° 0 mm 1 mps 736 mmHg 71%
    03:00 +7°C° 0 mm 1 mps 736 mmHg 71%
    04:00 +7°C° 0 mm 1 mps 735 mmHg 71%
    05:00 +7°C° 0 mm 1 mps 735 mmHg 71%
    06:00 +7°C° 0 mm 1 mps 735 mmHg 71%
    07:00 +7°C° 0 mm 1 mps 735 mmHg 72%
    08:00 +8°C° 0 mm 1 mps 735 mmHg 70%
    09:00 +9°C° 0 mm 1 mps 735 mmHg 69%
    10:00 +10°C° 0 mm 1 mps 735 mmHg 67%
    11:00 +11°C° 0 mm 1 mps 734 mmHg 66%
    12:00 +12°C° 0 mm 1 mps 734 mmHg 65%
    13:00 +13°C° 0 mm 1 mps 734 mmHg 64%
    14:00 +12°C° 0 mm 1 mps 734 mmHg 67%
    15:00 +11°C° 0 mm 1 mps 734 mmHg 71%
    16:00 +10°C° 0 mm 1 mps 734 mmHg 74%
    17:00 +9°C° 0 mm 1 mps 734 mmHg 73%
    18:00 +9°C° 0 mm 1 mps 735 mmHg 73%
    19:00 +9°C° 0 mm 1 mps 735 mmHg 72%
    20:00 +9°C° 0 mm 1 mps 735 mmHg 73%
    21:00 +9°C° 0 mm 1 mps 735 mmHg 74%
    22:00 +9°C° 0 mm 1 mps 736 mmHg 74%
    23:00 +9°C° 0 mm 1 mps 736 mmHg 77%
    Show more